TimeHST,TemperatureF,Dew PointF,Humidity,Sea Level PressureIn,VisibilityMPH,Wind Direction,Wind SpeedMPH,Gust SpeedMPH,PrecipitationIn,Events,Conditions,WindDirDegrees,DateUTC
12:10 AM,64.4,62.6,94,30.08,10.0,NNW,4.6,-,N/A,,Light Drizzle,330,2013-01-02 10:10:00
12:19 AM,64.4,62.6,94,30.07,10.0,NW,4.6,-,N/A,,Partly Cloudy,310,2013-01-02 10:19:00
12:50 AM,64.4,62.6,94,30.06,10.0,WNW,5.8,-,N/A,,Mostly Cloudy,300,2013-01-02 10:50:00
12:55 AM,65.3,62.6,91,30.06,10.0,NW,6.9,-,0.00,,Mostly Cloudy,310,2013-01-02 10:55:00
12:58 AM,66.2,62.6,88,30.06,10.0,NW,8.1,-,N/A,,Scattered Clouds,310,2013-01-02 10:58:00
1:00 AM,66.2,62.6,88,30.06,10.0,NW,8.1,-,N/A,,Mostly Cloudy,310,2013-01-02 11:00:00
1:26 AM,66.2,62.6,88,30.06,10.0,NW,8.1,-,N/A,,Scattered Clouds,310,2013-01-02 11:26:00
1:55 AM,65.5,63.1,92,30.05,10.0,NW,8.1,-,0.01,,Partly Cloudy,320,2013-01-02 11:55:00
2:31 AM,66.2,62.6,88,30.04,10.0,NW,6.9,-,N/A,,Mostly Cloudy,320,2013-01-02 12:31:00
2:54 AM,66.2,62.6,88,30.03,10.0,NW,6.9,-,N/A,,Mostly Cloudy,320,2013-01-02 12:54:00
2:55 AM,65.8,63.5,92,30.03,10.0,NW,6.9,-,N/A,,Mostly Cloudy,320,2013-01-02 12:55:00
3:40 AM,66.2,64.4,94,30.02,10.0,NNW,6.9,-,N/A,,Mostly Cloudy,330,2013-01-02 13:40:00
3:45 AM,66.2,64.4,94,30.02,10.0,Variable,4.6,-,N/A,,Light Drizzle,0,2013-01-02 13:45:00
3:55 AM,66.0,63.7,92,30.01,10.0,WNW,4.6,-,0.00,,Light Drizzle,300,2013-01-02 13:55:00
3:56 AM,66.2,64.4,94,30.01,10.0,Variable,5.8,-,N/A,,Mostly Cloudy,0,2013-01-02 13:56:00
4:00 AM,66.2,62.6,88,30.01,10.0,NW,3.5,-,N/A,,Scattered Clouds,320,2013-01-02 14:00:00
4:06 AM,66.2,62.6,88,30.01,10.0,NW,5.8,-,N/A,,Mostly Cloudy,310,2013-01-02 14:06:00
4:22 AM,66.2,64.4,94,30.02,10.0,NW,5.8,-,N/A,,Mostly Cloudy,320,2013-01-02 14:22:00
4:26 AM,66.2,64.4,94,30.02,10.0,NW,5.8,-,N/A,,Mostly Cloudy,310,2013-01-02 14:26:00
4:29 AM,66.2,64.4,94,30.02,10.0,NW,4.6,-,N/A,,Mostly Cloudy,320,2013-01-02 14:29:00
4:32 AM,66.2,62.6,88,30.02,10.0,WNW,4.6,-,N/A,,Mostly Cloudy,300,2013-01-02 14:32:00
4:39 AM,66.2,62.6,88,30.02,10.0,NNW,4.6,-,N/A,,Overcast,330,2013-01-02 14:39:00
4:40 AM,66.2,64.4,94,30.02,10.0,NNW,5.8,-,N/A,,Mostly Cloudy,330,2013-01-02 14:40:00
4:55 AM,66.2,63.5,91,30.02,10.0,NNW,5.8,-,N/A,,Mostly Cloudy,330,2013-01-02 14:55:00
4:58 AM,66.2,64.4,94,30.02,10.0,NNW,6.9,-,N/A,,Mostly Cloudy,330,2013-01-02 14:58:00
5:05 AM,66.2,64.4,94,30.03,10.0,NNW,6.9,-,N/A,,Mostly Cloudy,330,2013-01-02 15:05:00
5:08 AM,66.2,64.4,94,30.03,10.0,NNW,6.9,-,N/A,,Light Drizzle,330,2013-01-02 15:08:00
5:15 AM,66.2,64.4,94,30.02,10.0,Variable,4.6,-,N/A,,Light Drizzle,0,2013-01-02 15:15:00
5:20 AM,66.2,64.4,94,30.03,10.0,NNW,4.6,-,N/A,,Mostly Cloudy,340,2013-01-02 15:20:00
5:21 AM,66.2,64.4,94,30.02,10.0,North,5.8,-,N/A,,Mostly Cloudy,350,2013-01-02 15:21:00
5:22 AM,66.2,64.4,94,30.02,10.0,North,6.9,-,N/A,,Mostly Cloudy,360,2013-01-02 15:22:00
5:55 AM,66.4,63.7,91,30.03,10.0,WNW,5.8,-,0.00,,Overcast,300,2013-01-02 15:55:00
6:55 AM,66.9,63.7,89,30.04,10.0,NNW,4.6,-,N/A,,Mostly Cloudy,330,2013-01-02 16:55:00
6:59 AM,66.2,64.4,94,30.04,10.0,NW,6.9,-,N/A,,Overcast,310,2013-01-02 16:59:00
7:28 AM,66.2,64.4,94,30.04,10.0,NW,3.5,-,N/A,,Mostly Cloudy,320,2013-01-02 17:28:00
7:34 AM,66.2,64.4,94,30.04,10.0,NW,4.6,-,N/A,,Overcast,320,2013-01-02 17:34:00
7:55 AM,66.7,63.9,90,30.04,10.0,NNW,5.8,-,N/A,,Overcast,330,2013-01-02 17:55:00
7:57 AM,66.2,64.4,94,30.04,10.0,NW,5.8,-,N/A,,Overcast,320,2013-01-02 17:57:00
7:59 AM,66.2,64.4,94,30.04,10.0,NW,5.8,-,N/A,,Overcast,320,2013-01-02 17:59:00
8:08 AM,66.2,64.4,94,30.05,10.0,WNW,6.9,-,N/A,,Overcast,300,2013-01-02 18:08:00
8:15 AM,68.0,64.4,88,30.05,10.0,NW,6.9,-,N/A,,Overcast,320,2013-01-02 18:15:00
8:23 AM,68.0,64.4,88,30.05,10.0,NW,4.6,-,N/A,,Overcast,320,2013-01-02 18:23:00
8:55 AM,68.2,64.9,89,30.06,10.0,NW,5.8,-,N/A,,Mostly Cloudy,320,2013-01-02 18:55:00
9:04 AM,68.0,64.4,88,30.06,10.0,Variable,6.9,-,N/A,,Overcast,0,2013-01-02 19:04:00
9:05 AM,68.0,64.4,88,30.06,10.0,NNW,8.1,-,N/A,,Light Drizzle,340,2013-01-02 19:05:00
9:06 AM,68.0,64.4,88,30.06,10.0,Variable,6.9,-,N/A,,Light Drizzle,0,2013-01-02 19:06:00
9:14 AM,68.0,64.4,88,30.07,10.0,NNW,5.8,-,N/A,,Overcast,330,2013-01-02 19:14:00
9:35 AM,68.0,66.2,94,30.07,9.0,NW,8.1,-,N/A,,Light Drizzle,320,2013-01-02 19:35:00
9:48 AM,68.0,66.2,94,30.08,10.0,NW,5.8,-,N/A,,Light Drizzle,310,2013-01-02 19:48:00
9:52 AM,68.0,66.2,94,30.08,10.0,NW,5.8,-,N/A,,Light Drizzle,310,2013-01-02 19:52:00
9:54 AM,68.0,66.2,94,30.08,10.0,NW,5.8,-,N/A,,Mostly Cloudy,320,2013-01-02 19:54:00
9:55 AM,68.4,65.5,90,30.07,10.0,NW,5.8,-,0.00,,Mostly Cloudy,320,2013-01-02 19:55:00
10:14 AM,68.0,66.2,94,30.07,10.0,Variable,5.8,-,N/A,,Overcast,0,2013-01-02 20:14:00
10:19 AM,69.8,66.2,88,30.07,10.0,Variable,5.8,-,N/A,,Overcast,0,2013-01-02 20:19:00
10:31 AM,69.8,66.2,88,30.06,10.0,NNW,4.6,-,N/A,,Mostly Cloudy,340,2013-01-02 20:31:00
10:32 AM,69.8,66.2,88,30.07,10.0,North,3.5,-,N/A,,Mostly Cloudy,350,2013-01-02 20:32:00
10:41 AM,69.8,66.2,88,30.06,10.0,Variable,3.5,-,N/A,,Mostly Cloudy,0,2013-01-02 20:41:00
10:42 AM,69.8,66.2,88,30.06,10.0,Variable,3.5,-,N/A,,Mostly Cloudy,0,2013-01-02 20:42:00
10:55 AM,70.7,65.3,83,30.06,10.0,NE,10.4,17.3,N/A,,Mostly Cloudy,40,2013-01-02 20:55:00
11:12 AM,69.8,64.4,83,30.06,8.0,ENE,8.1,-,N/A,,Light Drizzle,70,2013-01-02 21:12:00
11:22 AM,69.8,64.4,83,30.06,9.0,NE,6.9,-,N/A,,Overcast,40,2013-01-02 21:22:00
11:33 AM,69.8,64.4,83,30.05,10.0,NE,6.9,-,N/A,,Mostly Cloudy,40,2013-01-02 21:33:00
11:55 AM,70.3,65.5,85,30.04,10.0,Variable,3.5,-,0.00,,Mostly Cloudy,0,2013-01-02 21:55:00
12:16 PM,71.6,66.2,83,30.03,10.0,NNE,6.9,-,N/A,,Overcast,30,2013-01-02 22:16:00
12:26 PM,71.6,64.4,78,30.03,10.0,NE,6.9,-,N/A,,Mostly Cloudy,50,2013-01-02 22:26:00
12:55 PM,71.8,64.4,77,30.01,10.0,ENE,10.4,-,N/A,,Mostly Cloudy,60,2013-01-02 22:55:00
1:21 PM,71.6,64.4,78,30.01,10.0,NE,6.9,-,N/A,,Overcast,50,2013-01-02 23:21:00
1:24 PM,71.6,64.4,78,30.00,10.0,Variable,6.9,-,N/A,,Overcast,0,2013-01-02 23:24:00
1:36 PM,71.6,64.4,78,29.99,10.0,NNE,8.1,-,N/A,,Mostly Cloudy,30,2013-01-02 23:36:00
1:39 PM,71.6,64.4,78,29.99,10.0,Variable,3.5,-,N/A,,Mostly Cloudy,0,2013-01-02 23:39:00
1:55 PM,71.8,64.0,77,29.98,10.0,ENE,10.4,20.7,N/A,,Overcast,60,2013-01-02 23:55:00
2:55 PM,71.6,64.2,77,29.97,10.0,ENE,6.9,-,N/A,,Overcast,60,2013-01-03 00:55:00
3:26 PM,71.6,64.4,78,29.97,10.0,NE,8.1,-,N/A,,Light Drizzle,50,2013-01-03 01:26:00
3:34 PM,71.6,64.4,78,29.96,10.0,Variable,4.6,-,N/A,,Mostly Cloudy,0,2013-01-03 01:34:00
3:35 PM,71.6,64.4,78,29.96,10.0,Variable,3.5,-,N/A,,Mostly Cloudy,0,2013-01-03 01:35:00
3:40 PM,71.6,64.4,78,29.97,10.0,NNE,5.8,-,N/A,,Mostly Cloudy,20,2013-01-03 01:40:00
3:41 PM,71.6,64.4,78,29.97,10.0,Variable,6.9,-,N/A,,Mostly Cloudy,0,2013-01-03 01:41:00
3:55 PM,71.2,64.4,79,29.97,10.0,East,6.9,-,0.00,,Mostly Cloudy,80,2013-01-03 01:55:00
4:15 PM,71.6,64.4,78,29.97,10.0,ENE,4.6,-,N/A,,Overcast,60,2013-01-03 02:15:00
4:24 PM,69.8,64.4,83,29.97,10.0,NNE,5.8,-,N/A,,Overcast,30,2013-01-03 02:24:00
4:49 PM,69.8,64.4,83,29.98,10.0,Variable,6.9,-,N/A,,Overcast,0,2013-01-03 02:49:00
4:50 PM,69.8,64.4,83,29.98,10.0,NNE,6.9,-,N/A,,Overcast,30,2013-01-03 02:50:00
4:52 PM,69.8,64.4,83,29.98,10.0,NE,8.1,-,N/A,,Overcast,40,2013-01-03 02:52:00
4:53 PM,69.8,64.4,83,29.98,10.0,NNE,9.2,-,N/A,,Overcast,30,2013-01-03 02:53:00
4:55 PM,70.2,64.6,82,29.98,10.0,NNE,6.9,-,N/A,,Overcast,30,2013-01-03 02:55:00
5:34 PM,69.8,64.4,83,29.99,10.0,NE,5.8,-,N/A,,Light Drizzle,40,2013-01-03 03:34:00
5:41 PM,69.8,64.4,83,29.99,10.0,North,4.6,-,N/A,,Mostly Cloudy,360,2013-01-03 03:41:00
5:55 PM,69.1,64.4,85,29.99,10.0,NNW,4.6,-,0.00,,Overcast,340,2013-01-03 03:55:00
6:14 PM,69.8,64.4,83,29.99,10.0,NNW,5.8,-,N/A,,Light Drizzle,340,2013-01-03 04:14:00
6:42 PM,68.0,64.4,88,30.00,8.0,NW,3.5,-,N/A,,Light Drizzle,320,2013-01-03 04:42:00
6:46 PM,68.0,64.4,88,30.00,9.0,NNW,3.5,-,N/A,,Scattered Clouds,330,2013-01-03 04:46:00
6:52 PM,68.0,64.4,88,30.00,10.0,NNW,5.8,-,N/A,,Light Drizzle,340,2013-01-03 04:52:00
6:55 PM,68.2,64.9,89,30.00,9.0,North,4.6,-,0.00,,Light Drizzle,360,2013-01-03 04:55:00
7:19 PM,68.0,64.4,88,30.01,10.0,NW,4.6,-,N/A,,Scattered Clouds,320,2013-01-03 05:19:00
7:26 PM,68.0,64.4,88,30.01,10.0,NW,5.8,-,N/A,,Scattered Clouds,320,2013-01-03 05:26:00
7:28 PM,68.0,64.4,88,30.01,10.0,NNW,4.6,-,N/A,,Light Drizzle,340,2013-01-03 05:28:00
7:33 PM,68.0,64.4,88,30.01,10.0,NNW,4.6,-,N/A,,Light Drizzle,330,2013-01-03 05:33:00
7:47 PM,68.0,64.4,88,30.02,9.0,WNW,3.5,-,N/A,,Scattered Clouds,300,2013-01-03 05:47:00
7:50 PM,68.0,64.4,88,30.02,10.0,Variable,3.5,-,N/A,,Mostly Cloudy,0,2013-01-03 05:50:00
7:51 PM,68.0,64.4,88,30.02,10.0,WNW,3.5,-,N/A,,Mostly Cloudy,300,2013-01-03 05:51:00
7:52 PM,68.0,64.4,88,30.02,9.0,Calm,Calm,-,N/A,,Light Drizzle,0,2013-01-03 05:52:00
7:55 PM,67.5,65.1,92,30.02,8.0,Calm,Calm,-,0.00,,Light Drizzle,0,2013-01-03 05:55:00
8:04 PM,68.0,64.4,88,30.02,9.0,NNW,5.8,-,N/A,,Light Drizzle,340,2013-01-03 06:04:00
8:22 PM,68.0,64.4,88,30.03,10.0,NW,3.5,-,N/A,,Light Drizzle,320,2013-01-03 06:22:00
8:23 PM,68.0,64.4,88,30.03,10.0,Variable,4.6,-,N/A,,Light Drizzle,0,2013-01-03 06:23:00
8:24 PM,68.0,64.4,88,30.03,10.0,Variable,4.6,-,N/A,,Scattered Clouds,0,2013-01-03 06:24:00
8:36 PM,68.0,64.4,88,30.03,10.0,North,4.6,-,N/A,,Light Drizzle,360,2013-01-03 06:36:00
8:50 PM,68.0,64.4,88,30.04,5.0,NW,3.5,-,N/A,Rain,Light Rain,320,2013-01-03 06:50:00
8:55 PM,67.1,65.1,93,30.04,7.0,NW,3.5,-,0.01,,Light Drizzle,310,2013-01-03 06:55:00
9:00 PM,66.2,64.4,94,30.04,10.0,Calm,Calm,-,N/A,,Mostly Cloudy,0,2013-01-03 07:00:00
9:03 PM,66.2,64.4,94,30.04,10.0,NW,3.5,-,N/A,,Light Drizzle,310,2013-01-03 07:03:00
9:12 PM,66.2,64.4,94,30.04,10.0,NW,4.6,-,N/A,,Light Drizzle,310,2013-01-03 07:12:00
9:15 PM,66.2,64.4,94,30.04,10.0,NW,4.6,-,N/A,,Scattered Clouds,320,2013-01-03 07:15:00
9:20 PM,66.2,64.4,94,30.04,10.0,NW,3.5,-,N/A,,Light Drizzle,320,2013-01-03 07:20:00
9:26 PM,66.2,64.4,94,30.04,6.0,Calm,Calm,-,N/A,Rain,Light Rain,0,2013-01-03 07:26:00
9:34 PM,66.2,64.4,94,30.04,2.5,NNW,4.6,-,N/A,Rain,Rain,330,2013-01-03 07:34:00
9:36 PM,66.2,64.4,94,30.04,3.0,NNW,3.5,-,N/A,Rain,Light Rain,330,2013-01-03 07:36:00
9:47 PM,66.2,64.4,94,30.04,10.0,West,3.5,-,N/A,,Mostly Cloudy,270,2013-01-03 07:47:00
9:53 PM,66.2,64.4,94,30.04,10.0,West,4.6,-,N/A,,Light Drizzle,280,2013-01-03 07:53:00
9:55 PM,66.6,64.8,94,30.04,7.0,WNW,3.5,-,0.02,,Light Drizzle,290,2013-01-03 07:55:00
9:58 PM,66.2,64.4,94,30.04,5.0,WNW,3.5,-,N/A,Rain,Light Rain,290,2013-01-03 07:58:00
10:32 PM,66.2,64.4,94,30.04,4.0,NW,3.5,-,N/A,Rain,Light Rain,310,2013-01-03 08:32:00
10:55 PM,66.9,65.1,94,30.04,6.0,North,5.8,-,0.04,Rain,Light Rain,350,2013-01-03 08:55:00
11:15 PM,66.2,64.4,94,30.04,9.0,NNW,4.6,-,N/A,,Light Drizzle,340,2013-01-03 09:15:00
11:20 PM,66.2,64.4,94,30.03,10.0,North,4.6,-,N/A,,Light Drizzle,360,2013-01-03 09:20:00
11:22 PM,66.2,64.4,94,30.04,10.0,North,4.6,-,N/A,,Light Drizzle,360,2013-01-03 09:22:00
11:30 PM,66.2,64.4,94,30.03,6.0,North,3.5,-,N/A,Rain,Light Rain,360,2013-01-03 09:30:00
11:55 PM,66.7,64.9,94,30.02,7.0,NW,8.1,-,0.02,Rain,Light Rain,310,2013-01-03 09:55:00